Location: La Sioule Rivi�re
(46.3664°N, 3.3197°E)
Time: 12:16:47
(UTC+00:00)

NOSS 3-3 (A) - Pass Details

Date: 29 October 2020
Orbit: 826 x 1387 km, 63.4° (Epoch: 22 November)

Event Time Altitude Azimuth Distance (km) Brightness Sun altitude
Rises 18:02:53 0° 206° (SSW) 3,399 7.3 -15.5°
Reaches altitude 10° 18:05:15 10° 204° (SSW) 2,505 6.5 -15.9°
Maximum altitude 18:10:57 66° 123° (ESE) 1,015 3.9 -16.9°
Enters shadow 18:16:11 16° 45° (NE) 2,370 5.6 -17.8°
